^^
Saratoga-Weather Station Historical Data
Daily Summary for July 22, 2021 Units:  Metric    English   Both
Daily Weekly Monthly Yearly Custom
  High: Low: Average:
Temperature: 6.5 °C 5.3 °C 5.9 °C
Dew Point: 5.4 °C 3.6 °C 4.5 °C
Humidity: 95% 84% 91%
Wind Speed: 11.1km/h 0km/h 2.8km/h
Wind Gust: 16.1km/h - -
Wind- - SW
Pressure: 1021.3 hPa 1014.6 hPa -
Precipitation: 0.0 mm    
Historical Graphs
 
 
Tabular Data for July 22, 2021
Time Temperature Dew Point Pressure Wind Wind Speed Wind Gust Humidity Rainfall Rate (Hourly) solar
00:03 6.1 °C 5.4 °C 1014.6 hPa Calm     95% 0.5 mm 0 W/m2
00:08 6.1 °C 5.4 °C 1014.6 hPa Calm   3.2 km/h 95% 0.5 mm 0 W/m2
00:13 6.1 °C 5.4 °C 1014.6 hPa Calm     95% 0.5 mm 0 W/m2
00:18 6.1 °C 5.4 °C 1014.6 hPa Calm     95% 0.5 mm 0 W/m2
00:23 6.1 °C 5.4 °C 1014.6 hPa Calm     95% 0.2 mm 0 W/m2
00:28 6 °C 5.3 °C 1014.6 hPa WNW 1.4 km/h 3.2 km/h 95% 0.2 mm 0 W/m2
00:33 6 °C 5.3 °C 1014.6 hPa NNW 3.2 km/h 3.2 km/h 95% 0.2 mm 0 W/m2
00:38 6 °C 5.3 °C 1014.6 hPa West 6.4 km/h 6.4 km/h 95% 0.2 mm 0 W/m2
00:43 6 °C 5.3 °C 1014.9 hPa NW 1.4 km/h 3.2 km/h 95% 0.0 mm 0 W/m2
00:48 6 °C 5.3 °C 1014.9 hPa Calm   6.4 km/h 95% 0.0 mm 0 W/m2
00:53 6 °C 5.3 °C 1014.9 hPa NW 3.2 km/h 4.8 km/h 95% 0.0 mm 0 W/m2
00:58 6.1 °C 5.4 °C 1014.9 hPa WNW 3.2 km/h 6.4 km/h 95% 0.0 mm 0 W/m2
01:04 6.1 °C 5.4 °C 1014.9 hPa NW 3.2 km/h 3.2 km/h 95% 0.0 mm 0 W/m2
01:09 6.1 °C 5.2 °C 1014.9 hPa WNW 4.7 km/h 6.4 km/h 94% 0.0 mm 0 W/m2
01:14 6.2 °C 5.3 °C 1014.9 hPa NW 1.4 km/h 3.2 km/h 94% 0.0 mm 0 W/m2
01:19 6.2 °C 5.3 °C 1014.9 hPa NNW 1.4 km/h 8 km/h 94% 0.0 mm 0 W/m2
01:24 6.2 °C 5.3 °C 1014.9 hPa North 1.4 km/h 4.8 km/h 94% 0.0 mm 0 W/m2
01:29 6.2 °C 5.3 °C 1014.9 hPa WSW 1.4 km/h 1.6 km/h 94% 0.0 mm 0 W/m2
01:34 6.2 °C 5.3 °C 1015.2 hPa WNW 1.4 km/h 3.2 km/h 94% 0.0 mm 0 W/m2
01:39 6.3 °C 5.4 °C 1014.9 hPa NW 1.4 km/h 4.8 km/h 94% 0.0 mm 0 W/m2
01:44 6.2 °C 5.3 °C 1014.9 hPa NE 3.2 km/h 4.8 km/h 94% 0.0 mm 0 W/m2
01:49 6.2 °C 5.2 °C 1015.2 hPa WNW 1.4 km/h 4.8 km/h 93% 0.0 mm 0 W/m2
01:54 6.2 °C 5.2 °C 1015.2 hPa ENE 4.7 km/h 4.8 km/h 93% 0.0 mm 0 W/m2
01:59 6.2 °C 5.3 °C 1015.2 hPa North 3.2 km/h 4.8 km/h 94% 0.0 mm 0 W/m2
02:04 6.2 °C 5.2 °C 1015.2 hPa West 3.2 km/h 4.8 km/h 93% 0.0 mm 0 W/m2
02:09 6.2 °C 5.2 °C 1015.2 hPa NNW 1.4 km/h 4.8 km/h 93% 0.0 mm 0 W/m2
02:14 6.2 °C 5.2 °C 1015.2 hPa NNW 1.4 km/h 6.4 km/h 93% 0.0 mm 0 W/m2
02:19 6.2 °C 5.2 °C 1015.2 hPa Calm     93% 0.0 mm 0 W/m2
02:24 6.2 °C 5.2 °C 1015.2 hPa WNW 1.4 km/h 3.2 km/h 93% 0.0 mm 0 W/m2
02:29 6.2 °C 5.2 °C 1015.6 hPa West 4.7 km/h 6.4 km/h 93% 0.0 mm 0 W/m2
02:34 6.2 °C 5.2 °C 1015.6 hPa NW 3.2 km/h 8 km/h 93% 0.0 mm 0 W/m2
02:39 6.2 °C 5.2 °C 1015.6 hPa West 1.4 km/h 6.4 km/h 93% 0.0 mm 0 W/m2
02:44 6.2 °C 5.2 °C 1015.6 hPa NNE 1.4 km/h 6.4 km/h 93% 0.0 mm 0 W/m2
02:49 6.2 °C 5.2 °C 1015.9 hPa West 3.2 km/h 4.8 km/h 93% 0.0 mm 0 W/m2
02:54 6.2 °C 5 °C 1015.9 hPa WNW 3.2 km/h 6.4 km/h 92% 0.0 mm 0 W/m2
02:59 6.2 °C 5 °C 1015.9 hPa Calm   8 km/h 92% 0.0 mm 0 W/m2
03:04 6.2 °C 5 °C 1015.9 hPa West 3.2 km/h 6.4 km/h 92% 0.0 mm 0 W/m2
03:09 6.3 °C 5.1 °C 1015.9 hPa NNW 1.4 km/h 3.2 km/h 92% 0.0 mm 0 W/m2
03:14 6.3 °C 5.1 °C 1015.9 hPa North 1.4 km/h 11.3 km/h 92% 0.0 mm 0 W/m2
03:19 6.3 °C 5.1 °C 1015.9 hPa NW 1.4 km/h 9.7 km/h 92% 0.0 mm 0 W/m2
03:24 6.3 °C 4.9 °C 1015.9 hPa NNE 1.4 km/h 14.5 km/h 91% 0.0 mm 0 W/m2
03:29 6.3 °C 4.9 °C 1016.3 hPa NNW 3.2 km/h 9.7 km/h 91% 0.0 mm 0 W/m2
03:34 6.3 °C 4.9 °C 1015.9 hPa North 4.7 km/h 14.5 km/h 91% 0.0 mm 0 W/m2
03:39 6.3 °C 4.9 °C 1016.3 hPa Calm   6.4 km/h 91% 0.0 mm 0 W/m2
03:44 6.2 °C 4.8 °C 1016.3 hPa SW 1.4 km/h 9.7 km/h 91% 0.0 mm 0 W/m2
03:49 6.2 °C 4.8 °C 1016.3 hPa Calm   8 km/h 91% 0.0 mm 0 W/m2
03:54 6.2 °C 4.8 °C 1016.3 hPa WNW 3.2 km/h 6.4 km/h 91% 0.0 mm 0 W/m2
03:59 6.2 °C 4.8 °C 1016.3 hPa WNW 1.4 km/h 3.2 km/h 91% 0.0 mm 0 W/m2
04:04 6.2 °C 4.8 °C 1016.3 hPa NNE 4.7 km/h 9.7 km/h 91% 0.0 mm 0 W/m2
04:09 6.1 °C 4.7 °C 1016.3 hPa NNW 4.7 km/h 4.8 km/h 91% 0.0 mm 0 W/m2
04:14 6.1 °C 4.7 °C 1016.3 hPa North 1.4 km/h 8 km/h 91% 0.0 mm 0 W/m2
04:19 6.1 °C 4.7 °C 1016.3 hPa West 3.2 km/h 4.8 km/h 91% 0.0 mm 0 W/m2
04:24 6 °C 4.6 °C 1016.3 hPa Calm   4.8 km/h 91% 0.0 mm 0 W/m2
04:29 6 °C 4.6 °C 1016.3 hPa NW 3.2 km/h 8 km/h 91% 0.0 mm 0 W/m2
04:34 5.9 °C 4.5 °C 1016.6 hPa North 1.4 km/h 11.3 km/h 91% 0.0 mm 0 W/m2
04:39 5.9 °C 4.5 °C 1016.6 hPa NNW 1.4 km/h 3.2 km/h 91% 0.0 mm 0 W/m2
04:44 5.9 °C 4.5 °C 1016.6 hPa NW 3.2 km/h 6.4 km/h 91% 0.0 mm 0 W/m2
04:49 5.9 °C 4.5 °C 1016.6 hPa WNW 6.4 km/h 12.9 km/h 91% 0.0 mm 0 W/m2
04:54 5.9 °C 4.5 °C 1016.6 hPa West 3.2 km/h 4.8 km/h 91% 0.0 mm 0 W/m2
04:59 5.9 °C 4.5 °C 1016.6 hPa NW 1.4 km/h 12.9 km/h 91% 0.0 mm 0 W/m2
05:04 5.9 °C 4.5 °C 1016.9 hPa West 3.2 km/h 4.8 km/h 91% 0.0 mm 0 W/m2
05:09 5.9 °C 4.5 °C 1016.9 hPa West 1.4 km/h 6.4 km/h 91% 0.0 mm 0 W/m2
05:14 5.8 °C 4.4 °C 1016.9 hPa NW 3.2 km/h 11.3 km/h 91% 0.0 mm 0 W/m2
05:19 5.8 °C 4.3 °C 1016.9 hPa NW 1.4 km/h 4.8 km/h 90% 0.0 mm 0 W/m2
05:24 5.8 °C 4.3 °C 1016.9 hPa WNW 4.7 km/h 9.7 km/h 90% 0.0 mm 0 W/m2
05:29 5.8 °C 4.3 °C 1017.3 hPa WNW 4.7 km/h 8 km/h 90% 0.0 mm 0 W/m2
05:34 5.8 °C 4.3 °C 1017.3 hPa North 1.4 km/h 6.4 km/h 90% 0.0 mm 0 W/m2
05:39 5.8 °C 4.3 °C 1017.3 hPa NNE 1.4 km/h 6.4 km/h 90% 0.0 mm 0 W/m2
05:44 5.8 °C 4.3 °C 1017.3 hPa South 3.2 km/h 3.2 km/h 90% 0.0 mm 0 W/m2
05:49 5.8 °C 4.3 °C 1017.3 hPa Calm   8 km/h 90% 0.0 mm 0 W/m2
05:54 5.8 °C 4.3 °C 1017.3 hPa SSE 6.4 km/h 9.7 km/h 90% 0.0 mm 0 W/m2
05:59 5.8 °C 4.3 °C 1017.6 hPa West 6.4 km/h 6.4 km/h 90% 0.0 mm 0 W/m2
06:04 5.7 °C 4.2 °C 1017.6 hPa North 6.4 km/h 9.7 km/h 90% 0.0 mm 0 W/m2
06:09 5.7 °C 4 °C 1017.6 hPa WSW 1.4 km/h 8 km/h 89% 0.0 mm 0 W/m2
06:14 5.7 °C 4 °C 1017.6 hPa NNW 1.4 km/h 11.3 km/h 89% 0.0 mm 0 W/m2
06:19 5.7 °C 4 °C 1017.6 hPa East 1.4 km/h 4.8 km/h 89% 0.0 mm 0 W/m2
06:24 5.7 °C 4 °C 1017.6 hPa North 1.4 km/h 4.8 km/h 89% 0.0 mm 0 W/m2
06:29 5.7 °C 4 °C 1018.0 hPa ENE 11.1 km/h 16.1 km/h 89% 0.0 mm 0 W/m2
06:34 5.6 °C 3.9 °C 1018.0 hPa East 4.7 km/h 4.8 km/h 89% 0.0 mm 0 W/m2
06:39 5.6 °C 3.9 °C 1018.0 hPa NE 3.2 km/h 16.1 km/h 89% 0.0 mm 0 W/m2
06:44 5.6 °C 3.9 °C 1018.0 hPa East 4.7 km/h 8 km/h 89% 0.0 mm 0 W/m2
06:49 5.6 °C 3.9 °C 1018.0 hPa East 1.4 km/h 4.8 km/h 89% 0.0 mm 0 W/m2
06:54 5.5 °C 3.8 °C 1018.0 hPa North 4.7 km/h 4.8 km/h 89% 0.0 mm 0 W/m2
06:59 5.4 °C 3.7 °C 1018.3 hPa NW 3.2 km/h 9.7 km/h 89% 0.0 mm 0 W/m2
07:04 5.4 °C 3.7 °C 1018.3 hPa North 3.2 km/h 9.7 km/h 89% 0.0 mm 0 W/m2
07:09 5.4 °C 3.7 °C 1018.3 hPa Calm   4.8 km/h 89% 0.0 mm 0 W/m2
07:14 5.4 °C 3.7 °C 1018.3 hPa WNW 3.2 km/h 3.2 km/h 89% 0.0 mm 0 W/m2
07:19 5.3 °C 3.6 °C 1018.6 hPa WNW 6.4 km/h 9.7 km/h 89% 0.0 mm 0 W/m2
07:24 5.3 °C 3.6 °C 1018.6 hPa North 4.7 km/h 6.4 km/h 89% 0.0 mm 0 W/m2
07:29 5.3 °C 3.6 °C 1018.6 hPa WSW 4.7 km/h 9.7 km/h 89% 0.0 mm 0 W/m2
07:34 5.3 °C 3.6 °C 1019.0 hPa WNW 1.4 km/h 8 km/h 89% 0.0 mm 0 W/m2
07:40 5.3 °C 3.6 °C 1019.0 hPa NW 1.4 km/h 6.4 km/h 89% 0.0 mm 0 W/m2
07:45 5.3 °C 3.6 °C 1019.0 hPa ENE 1.4 km/h 6.4 km/h 89% 0.0 mm 0 W/m2
07:50 5.3 °C 3.6 °C 1019.0 hPa NNW 3.2 km/h 6.4 km/h 89% 0.0 mm 0 W/m2
07:55 5.3 °C 3.6 °C 1019.0 hPa SSW 1.4 km/h 4.8 km/h 89% 0.0 mm 0 W/m2
08:00 5.3 °C 3.6 °C 1019.3 hPa NNE 3.2 km/h 12.9 km/h 89% 0.0 mm 0 W/m2
08:05 5.3 °C 3.6 °C 1019.3 hPa WNW 3.2 km/h 12.9 km/h 89% 0.0 mm 0 W/m2
08:10 5.3 °C 3.6 °C 1019.3 hPa NNW 4.7 km/h 6.4 km/h 89% 0.0 mm 0 W/m2
08:15 5.3 °C 3.6 °C 1019.6 hPa Calm   8 km/h 89% 0.0 mm 5 W/m2
08:20 5.3 °C 3.6 °C 1019.6 hPa NW 6.4 km/h 14.5 km/h 89% 0.0 mm 7 W/m2
08:25 5.3 °C 3.6 °C 1019.6 hPa NW 6.4 km/h 8 km/h 89% 0.0 mm 7 W/m2
08:30 5.4 °C 3.7 °C 1019.6 hPa WNW 4.7 km/h 8 km/h 89% 0.0 mm 9 W/m2
08:35 5.4 °C 3.7 °C 1019.6 hPa NW 3.2 km/h 12.9 km/h 89% 0.0 mm 7 W/m2
08:40 5.3 °C 3.6 °C 1020.0 hPa NNE 3.2 km/h 12.9 km/h 89% 0.0 mm 9 W/m2
08:45 5.4 °C 3.7 °C 1020.0 hPa ESE 4.7 km/h 8 km/h 89% 0.0 mm 11 W/m2
08:50 5.3 °C 3.6 °C 1020.0 hPa NNE 7.9 km/h 12.9 km/h 89% 0.0 mm 12 W/m2
08:55 5.4 °C 3.7 °C 1020.0 hPa Calm   6.4 km/h 89% 0.0 mm 18 W/m2
09:00 5.4 °C 3.7 °C 1020.3 hPa Calm   4.8 km/h 89% 0.0 mm 39 W/m2
09:05 5.4 °C 3.7 °C 1020.3 hPa North 6.4 km/h 11.3 km/h 89% 0.0 mm 47 W/m2
09:10 5.4 °C 3.7 °C 1020.3 hPa NNW 1.4 km/h 11.3 km/h 89% 0.0 mm 58 W/m2
09:15 5.5 °C 3.7 °C 1020.7 hPa NE 4.7 km/h 11.3 km/h 88% 0.0 mm 67 W/m2
09:20 5.6 °C 3.8 °C 1020.7 hPa West 3.2 km/h 4.8 km/h 88% 0.0 mm 67 W/m2
09:25 5.6 °C 3.8 °C 1020.7 hPa NW 4.7 km/h 12.9 km/h 88% 0.0 mm 62 W/m2
09:30 5.6 °C 3.8 °C 1020.7 hPa NNW 3.2 km/h 4.8 km/h 88% 0.0 mm 67 W/m2
09:35 5.7 °C 3.9 °C 1021.0 hPa NNW 3.2 km/h 6.4 km/h 88% 0.0 mm 58 W/m2
09:40 5.7 °C 3.9 °C 1021.0 hPa North 3.2 km/h 6.4 km/h 88% 0.0 mm 97 W/m2
09:45 5.7 °C 3.9 °C 1021.0 hPa Calm   1.6 km/h 88% 0.0 mm 114 W/m2
09:50 5.8 °C 4 °C 1021.0 hPa WNW 4.7 km/h 11.3 km/h 88% 0.0 mm 67 W/m2
09:55 5.9 °C 3.9 °C 1021.0 hPa NE 6.4 km/h 11.3 km/h 87% 0.0 mm 49 W/m2
10:00 6 °C 4 °C 1021.0 hPa WSW 1.4 km/h 6.4 km/h 87% 0.0 mm 62 W/m2
10:05 6.1 °C 3.9 °C 1021.0 hPa WSW 6.4 km/h 11.3 km/h 86% 0.0 mm 69 W/m2
10:10 6.2 °C 4 °C 1021.3 hPa ENE 6.4 km/h 8 km/h 86% 0.0 mm 53 W/m2
10:15 6.3 °C 4.1 °C 1021.3 hPa SSE 1.4 km/h 9.7 km/h 86% 0.0 mm 86 W/m2
10:20 6.4 °C 4.1 °C 1021.3 hPa NNE 3.2 km/h 16.1 km/h 85% 0.0 mm 35 W/m2
10:25 6.4 °C 4.1 °C 1021.3 hPa East 3.2 km/h 6.4 km/h 85% 0.0 mm 49 W/m2
10:30 6.5 °C 4 °C 1021.3 hPa ESE 3.2 km/h 16.1 km/h 84% 0.0 mm 35 W/m2
Juneau County Weather
Compliments of Weather Underground - 2 mb